Location: Devore Heights
(34.2372°N, 117.4156°W)
Time: 07:03:27
(UTC+00:00)

Vanguard 1 Rocket - Pass Details

Date: 21 September 2024
Orbit: 650 x 4218 km, 34.3° (Epoch: 09 October)

Event Time Altitude Azimuth Distance (km) Brightness Sun altitude
Rises 10:04:52 0° 246° (WSW) 4,427 - -41.9°
Reaches altitude 10° 10:07:12 10° 244° (WSW) 3,754 - -41.6°
Exits shadow 10:16:42 75° 193° (SSW) 2,409 9.1 -40.0°
Maximum altitude 10:17:37 78° 160° (SSE) 2,469 9.2 -39.8°
Drops below altitude 10° 10:38:28 10° 79° (E) 6,909 12.5 -36.2°
Sets 10:44:41 0° 79° (ENE) 8,242 13.2 -35.1°
